This is the latest recevied weather packets stored in our database for station/object G4KVI. If no packets are shown the sender has not sent any weather packets the latest 10 day(s).
| Time | Temp. | Humidity | Pressure | Rain* | Wind** | Luminosity | Snow |
|---|---|---|---|---|---|---|---|
| 1777975568 | 13.89° C | 55% | 1016.3 hPa | 0 mm | - | 539 W/m² | - |
| 1777975268 | 13.89° C | 55% | 1016.2 hPa | 0 mm | - | 626 W/m² | - |
| 1777974968 | 13.89° C | 57% | 1016.2 hPa | 0 mm | - | 620 W/m² | - |
| 1777974668 | 13.89° C | 56% | 1016.2 hPa | 0 mm | - | 620 W/m² | - |
| 1777974368 | 13.89° C | 58% | 1016.1 hPa | 0 mm | - | 610 W/m² | - |
| 1777974068 | 13.89° C | 59% | 1016.2 hPa | 0 mm | - | 596 W/m² | - |
| 1777973768 | 13.89° C | 59% | 1016 hPa | 0 mm | - | 593 W/m² | - |
| 1777973468 | 12.78° C | 61% | 1016.2 hPa | 0 mm | - | 577 W/m² | - |
| 1777973168 | 12.78° C | 60% | 1016 hPa | 0 mm | - | 575 W/m² | - |
| 1777972868 | 12.78° C | 62% | 1016.2 hPa | 0 mm | - | 579 W/m² | - |
| 1777972568 | 12.22° C | 63% | 1016.1 hPa | 0 mm | - | 386 W/m² | - |
| 1777972268 | 12.78° C | 62% | 1016.2 hPa | 0 mm | - | 560 W/m² | - |
| 1777971968 | 12.78° C | 63% | 1016.2 hPa | 0 mm | - | 568 W/m² | - |
| 1777971668 | 12.22° C | 65% | 1016.2 hPa | 0 mm | - | 545 W/m² | - |
| 1777971368 | 12.22° C | 66% | 1016.2 hPa | 0 mm | - | 574 W/m² | - |
| 1777971068 | 12.22° C | 66% | 1016.4 hPa | 0 mm | - | 590 W/m² | - |
| 1777970768 | 11.67° C | 68% | 1016.3 hPa | 0 mm | - | 646 W/m² | - |
| 1777970468 | 11.67° C | 69% | 1016.5 hPa | 0 mm | - | 445 W/m² | - |
| 1777970168 | 11.11° C | 72% | 1016.4 hPa | 0 mm | - | 294 W/m² | - |
| 1777969868 | 11.11° C | 72% | 1016.2 hPa | 0 mm | - | 278 W/m² | - |
| 1777969568 | 11.11° C | 73% | 1016.4 hPa | 0 mm | - | 201 W/m² | - |
| 1777969268 | 11.11° C | 73% | 1016.3 hPa | 0 mm | - | 183 W/m² | - |
| 1777968968 | 11.11° C | 73% | 1016.6 hPa | 0 mm | - | 201 W/m² | - |
| 1777968668 | 11.11° C | 72% | 1016.4 hPa | 0 mm | - | 252 W/m² | - |
| 1777968368 | 11.67° C | 72% | 1016.4 hPa | 0 mm | - | 298 W/m² | - |
* Rain latest hour (hover to see other rain measurements)
** Current wind speed in m/s (hover to see current wind gust speed)